#datetime,building,power
2022-10-13T00:00:00,pkn,2.40
2022-10-13T00:02:00,pkn,1.20
2022-10-13T00:03:00,pkn,1.20
2022-10-13T00:05:00,pkn,1.20
2022-10-13T00:06:00,pkn,1.20
2022-10-13T00:08:00,pkn,1.20
2022-10-13T00:09:00,pkn,1.20
2022-10-13T00:10:00,pkn,1.20
2022-10-13T00:13:00,pkn,2.40
2022-10-13T00:16:00,pkn,9.60
2022-10-13T00:18:00,pkn,9.60
2022-10-13T00:20:00,pkn,10.80
2022-10-13T00:21:00,pkn,1.20
2022-10-13T00:22:00,pkn,8.40
2022-10-13T00:23:00,pkn,4.80
2022-10-13T00:25:00,pkn,2.40
2022-10-13T00:28:00,pkn,1.20
2022-10-13T00:29:00,pkn,1.20
2022-10-13T00:31:00,pkn,1.20
2022-10-13T00:33:00,pkn,1.20
2022-10-13T00:35:00,pkn,2.40
2022-10-13T00:37:00,pkn,1.20
2022-10-13T00:39:00,pkn,1.20
2022-10-13T00:41:00,pkn,2.40
2022-10-13T00:44:00,pkn,1.20
2022-10-13T00:46:00,pkn,2.40
2022-10-13T00:48:00,pkn,1.20
2022-10-13T00:50:00,pkn,1.20
2022-10-13T00:51:00,pkn,1.20
2022-10-13T00:53:00,pkn,1.20
2022-10-13T00:54:00,pkn,1.20
2022-10-13T00:56:00,pkn,7.20
2022-10-13T00:57:00,pkn,4.80
2022-10-13T00:58:00,pkn,4.80
2022-10-13T01:00:00,pkn,10.80
2022-10-13T01:02:00,pkn,9.60
2022-10-13T01:04:00,pkn,3.60
2022-10-13T01:06:00,pkn,1.20
2022-10-13T01:08:00,pkn,1.20
2022-10-13T01:10:00,pkn,1.20
2022-10-13T01:12:00,pkn,2.40
2022-10-13T01:14:00,pkn,1.20
2022-10-13T01:15:00,pkn,3.60
2022-10-13T01:16:00,pkn,4.80
2022-10-13T01:17:00,pkn,4.80
2022-10-13T01:19:00,pkn,9.60
2022-10-13T01:21:00,pkn,10.80
2022-10-13T01:22:00,pkn,3.60
2022-10-13T01:24:00,pkn,10.80
2022-10-13T01:25:00,pkn,4.80
2022-10-13T01:26:00,pkn,4.80
2022-10-13T01:28:00,pkn,9.60
2022-10-13T01:30:00,pkn,9.60
2022-10-13T01:32:00,pkn,9.60
2022-10-13T01:33:00,pkn,8.40
2022-10-13T01:34:00,pkn,2.40
2022-10-13T01:36:00,pkn,1.20
2022-10-13T01:37:00,pkn,1.20
2022-10-13T01:39:00,pkn,1.20
2022-10-13T01:40:00,pkn,1.20
2022-10-13T01:42:00,pkn,1.20
2022-10-13T01:43:00,pkn,1.20
2022-10-13T01:46:00,pkn,2.40
2022-10-13T01:48:00,pkn,3.60
2022-10-13T01:49:00,pkn,4.80
2022-10-13T01:51:00,pkn,9.60
2022-10-13T01:53:00,pkn,9.60
2022-10-13T01:54:00,pkn,4.80
2022-10-13T01:56:00,pkn,9.60
2022-10-13T01:57:00,pkn,2.40
2022-10-13T01:59:00,pkn,1.20
2022-10-13T02:00:00,pkn,1.20
2022-10-13T02:02:00,pkn,1.20
2022-10-13T02:03:00,pkn,1.20
2022-10-13T02:05:00,pkn,1.20
2022-10-13T02:07:00,pkn,1.20
2022-10-13T02:09:00,pkn,2.40
2022-10-13T02:12:00,pkn,1.20
2022-10-13T02:14:00,pkn,2.40
2022-10-13T02:16:00,pkn,1.20
2022-10-13T02:17:00,pkn,1.20
2022-10-13T02:18:00,pkn,1.20
2022-10-13T02:20:00,pkn,7.20
2022-10-13T02:21:00,pkn,1.20
2022-10-13T02:22:00,pkn,8.40
2022-10-13T02:23:00,pkn,2.40
2022-10-13T02:24:00,pkn,8.40
2022-10-13T02:25:00,pkn,4.80
2022-10-13T02:27:00,pkn,9.60
2022-10-13T02:28:00,pkn,4.80
2022-10-13T02:30:00,pkn,2.40
2022-10-13T02:32:00,pkn,1.20
2022-10-13T02:33:00,pkn,1.20
2022-10-13T02:35:00,pkn,1.20
2022-10-13T02:37:00,pkn,1.20
2022-10-13T02:38:00,pkn,1.20
2022-10-13T02:40:00,pkn,1.20
2022-10-13T02:42:00,pkn,1.20
2022-10-13T02:44:00,pkn,2.40
2022-10-13T02:45:00,pkn,1.20
2022-10-13T02:47:00,pkn,1.20
2022-10-13T02:48:00,pkn,1.20
2022-10-13T02:50:00,pkn,1.20
2022-10-13T02:51:00,pkn,1.20
2022-10-13T02:53:00,pkn,1.20
2022-10-13T02:55:00,pkn,1.20
2022-10-13T02:56:00,pkn,1.20
2022-10-13T02:59:00,pkn,2.40
2022-10-13T03:01:00,pkn,1.20
2022-10-13T03:03:00,pkn,2.40
2022-10-13T03:05:00,pkn,1.20
2022-10-13T03:07:00,pkn,2.40
2022-10-13T03:09:00,pkn,2.40
2022-10-13T03:11:00,pkn,10.80
2022-10-13T03:13:00,pkn,9.60
2022-10-13T03:14:00,pkn,6.00
2022-10-13T03:16:00,pkn,8.40
2022-10-13T03:17:00,pkn,1.20
2022-10-13T03:18:00,pkn,1.20
2022-10-13T03:20:00,pkn,1.20
2022-10-13T03:22:00,pkn,2.40
2022-10-13T03:24:00,pkn,1.20
2022-10-13T03:26:00,pkn,1.20
2022-10-13T03:28:00,pkn,1.20
2022-10-13T03:29:00,pkn,1.20
2022-10-13T03:32:00,pkn,2.40
2022-10-13T03:34:00,pkn,1.20
2022-10-13T03:36:00,pkn,1.20
2022-10-13T03:37:00,pkn,1.20
2022-10-13T03:39:00,pkn,1.20
2022-10-13T03:40:00,pkn,1.20
2022-10-13T03:42:00,pkn,1.20
2022-10-13T03:44:00,pkn,2.40
2022-10-13T03:47:00,pkn,2.40
2022-10-13T03:49:00,pkn,1.20
2022-10-13T03:51:00,pkn,1.20
2022-10-13T03:52:00,pkn,1.20
2022-10-13T03:54:00,pkn,1.20
2022-10-13T03:55:00,pkn,1.20
2022-10-13T03:57:00,pkn,9.60
2022-10-13T03:59:00,pkn,8.40
2022-10-13T04:01:00,pkn,10.80
2022-10-13T04:02:00,pkn,4.80
2022-10-13T04:04:00,pkn,9.60
2022-10-13T04:05:00,pkn,4.80
2022-10-13T04:06:00,pkn,1.20
2022-10-13T04:08:00,pkn,1.20
2022-10-13T04:10:00,pkn,2.40
2022-10-13T04:12:00,pkn,2.40
2022-10-13T04:14:00,pkn,1.20
2022-10-13T04:16:00,pkn,1.20
2022-10-13T04:17:00,pkn,1.20
2022-10-13T04:19:00,pkn,1.20
2022-10-13T04:21:00,pkn,1.20
2022-10-13T04:22:00,pkn,1.20
2022-10-13T04:24:00,pkn,1.20
2022-10-13T04:27:00,pkn,2.40
2022-10-13T04:29:00,pkn,1.20
2022-10-13T04:31:00,pkn,1.20
2022-10-13T04:32:00,pkn,1.20
2022-10-13T04:34:00,pkn,1.20
2022-10-13T04:35:00,pkn,4.80
2022-10-13T04:37:00,pkn,9.60
2022-10-13T04:38:00,pkn,4.80
2022-10-13T04:40:00,pkn,9.60
2022-10-13T04:42:00,pkn,4.80
2022-10-13T04:44:00,pkn,2.40
2022-10-13T04:46:00,pkn,1.20
2022-10-13T04:48:00,pkn,1.20
2022-10-13T04:50:00,pkn,1.20
2022-10-13T04:51:00,pkn,1.20
2022-10-13T04:54:00,pkn,1.20
2022-10-13T04:56:00,pkn,1.20
2022-10-13T04:58:00,pkn,2.40
2022-10-13T05:01:00,pkn,2.40
2022-10-13T05:03:00,pkn,1.20
2022-10-13T05:04:00,pkn,1.20
2022-10-13T05:06:00,pkn,1.20
2022-10-13T05:09:00,pkn,2.40
2022-10-13T05:10:00,pkn,1.20
2022-10-13T05:12:00,pkn,1.20
2022-10-13T05:14:00,pkn,1.20
2022-10-13T05:16:00,pkn,2.40
2022-10-13T05:18:00,pkn,1.20
2022-10-13T05:20:00,pkn,1.20
2022-10-13T05:21:00,pkn,1.20
2022-10-13T05:24:00,pkn,1.20
2022-10-13T05:25:00,pkn,1.20
2022-10-13T05:26:00,pkn,7.20
2022-10-13T05:28:00,pkn,9.60
2022-10-13T05:30:00,pkn,8.40
2022-10-13T05:32:00,pkn,7.20
2022-10-13T05:34:00,pkn,2.40
2022-10-13T05:36:00,pkn,1.20
2022-10-13T05:38:00,pkn,2.40
2022-10-13T05:40:00,pkn,1.20
2022-10-13T05:42:00,pkn,1.20
2022-10-13T05:44:00,pkn,2.40
2022-10-13T05:45:00,pkn,1.20
2022-10-13T05:47:00,pkn,1.20
2022-10-13T05:49:00,pkn,1.20
2022-10-13T05:51:00,pkn,1.20
2022-10-13T05:53:00,pkn,2.40
2022-10-13T05:55:00,pkn,2.40
2022-10-13T05:57:00,pkn,1.20
2022-10-13T05:59:00,pkn,1.20
2022-10-13T06:01:00,pkn,2.40
2022-10-13T06:03:00,pkn,1.20
2022-10-13T06:05:00,pkn,1.20
2022-10-13T06:06:00,pkn,1.20
2022-10-13T06:08:00,pkn,1.20
2022-10-13T06:10:00,pkn,2.40
2022-10-13T06:12:00,pkn,1.20
2022-10-13T06:14:00,pkn,1.20
2022-10-13T06:16:00,pkn,1.20
2022-10-13T06:18:00,pkn,2.40
2022-10-13T06:21:00,pkn,2.40
2022-10-13T06:24:00,pkn,2.40
2022-10-13T06:27:00,pkn,1.20
2022-10-13T06:29:00,pkn,4.80
2022-10-13T06:30:00,pkn,2.40
2022-10-13T06:31:00,pkn,3.60
2022-10-13T06:32:00,pkn,9.60
2022-10-13T06:34:00,pkn,10.80
2022-10-13T06:36:00,pkn,7.20
2022-10-13T06:38:00,pkn,1.20
2022-10-13T06:40:00,pkn,1.20
2022-10-13T06:41:00,pkn,1.20
2022-10-13T06:43:00,pkn,1.20
2022-10-13T06:44:00,pkn,1.20
2022-10-13T06:46:00,pkn,3.60
2022-10-13T06:48:00,pkn,8.40
2022-10-13T06:49:00,pkn,4.80
2022-10-13T06:51:00,pkn,9.60
2022-10-13T06:53:00,pkn,9.60
2022-10-13T06:55:00,pkn,9.60
2022-10-13T06:56:00,pkn,4.80
2022-10-13T06:58:00,pkn,9.60
2022-10-13T06:59:00,pkn,4.80
2022-10-13T07:01:00,pkn,9.60
2022-10-13T07:03:00,pkn,9.60
2022-10-13T07:05:00,pkn,3.60
2022-10-13T07:07:00,pkn,2.40
2022-10-13T07:10:00,pkn,1.20
2022-10-13T07:11:00,pkn,1.20
2022-10-13T07:13:00,pkn,1.20
2022-10-13T07:15:00,pkn,1.20
2022-10-13T07:17:00,pkn,2.40
2022-10-13T07:20:00,pkn,2.40
2022-10-13T07:21:00,pkn,6.00
2022-10-13T07:22:00,pkn,4.80
2022-10-13T07:24:00,pkn,10.80
2022-10-13T07:26:00,pkn,10.80
2022-10-13T07:28:00,pkn,8.40
2022-10-13T07:30:00,pkn,10.80
2022-10-13T07:32:00,pkn,1.20
2022-10-13T07:34:00,pkn,4.80
2022-10-13T07:36:00,pkn,6.00
2022-10-13T07:38:00,pkn,3.60
2022-10-13T07:40:00,pkn,3.60
2022-10-13T07:42:00,pkn,2.40
2022-10-13T07:44:00,pkn,2.40
2022-10-13T07:45:00,pkn,1.20
2022-10-13T07:46:00,pkn,1.20
2022-10-13T07:48:00,pkn,3.60
2022-10-13T07:49:00,pkn,1.20
2022-10-13T07:51:00,pkn,1.20
2022-10-13T07:53:00,pkn,2.40
2022-10-13T07:55:00,pkn,4.80
2022-10-13T07:56:00,pkn,6.00
2022-10-13T07:57:00,pkn,4.80
2022-10-13T07:59:00,pkn,9.60
2022-10-13T08:00:00,pkn,4.80
2022-10-13T08:02:00,pkn,9.60
2022-10-13T08:04:00,pkn,9.60
2022-10-13T08:05:00,pkn,2.40
2022-10-13T08:07:00,pkn,1.20
2022-10-13T08:09:00,pkn,1.20
2022-10-13T08:11:00,pkn,1.20
2022-10-13T08:13:00,pkn,8.40
2022-10-13T08:15:00,pkn,8.40
2022-10-13T08:16:00,pkn,6.00
2022-10-13T08:17:00,pkn,3.60
2022-10-13T08:19:00,pkn,9.60
2022-10-13T08:21:00,pkn,12.00
2022-10-13T08:23:00,pkn,13.20
2022-10-13T08:24:00,pkn,6.00
2022-10-13T08:26:00,pkn,9.60
2022-10-13T08:27:00,pkn,4.80
2022-10-13T08:29:00,pkn,2.40
2022-10-13T08:32:00,pkn,2.40
2022-10-13T08:34:00,pkn,1.20
2022-10-13T08:36:00,pkn,1.20
2022-10-13T08:38:00,pkn,2.40
2022-10-13T08:40:00,pkn,7.20
2022-10-13T08:42:00,pkn,9.60
2022-10-13T08:45:00,pkn,14.40
2022-10-13T08:47:00,pkn,9.60
2022-10-13T08:49:00,pkn,10.80
2022-10-13T08:51:00,pkn,8.40
2022-10-13T08:52:00,pkn,6.00
2022-10-13T08:54:00,pkn,4.80
2022-10-13T08:56:00,pkn,1.20
2022-10-13T08:57:00,pkn,1.20
2022-10-13T08:59:00,pkn,1.20
2022-10-13T09:01:00,pkn,1.20
2022-10-13T09:04:00,pkn,1.20
2022-10-13T09:06:00,pkn,2.40
2022-10-13T09:08:00,pkn,1.20
2022-10-13T09:10:00,pkn,8.40
2022-10-13T09:12:00,pkn,8.40
2022-10-13T09:13:00,pkn,6.00
2022-10-13T09:14:00,pkn,3.60
2022-10-13T09:16:00,pkn,9.60
2022-10-13T09:17:00,pkn,4.80
2022-10-13T09:19:00,pkn,9.60
2022-10-13T09:21:00,pkn,1.20
2022-10-13T09:23:00,pkn,1.20
2022-10-13T09:26:00,pkn,1.20
2022-10-13T09:28:00,pkn,2.40
2022-10-13T09:30:00,pkn,1.20
2022-10-13T09:33:00,pkn,1.20
2022-10-13T09:34:00,pkn,1.20
2022-10-13T09:37:00,pkn,1.20
2022-10-13T09:39:00,pkn,1.20
2022-10-13T09:40:00,pkn,1.20
2022-10-13T09:42:00,pkn,9.60
2022-10-13T09:44:00,pkn,8.40
2022-10-13T09:45:00,pkn,6.00
2022-10-13T09:47:00,pkn,9.60
2022-10-13T09:48:00,pkn,3.60
2022-10-13T09:50:00,pkn,2.40
2022-10-13T09:51:00,pkn,1.20
2022-10-13T09:53:00,pkn,1.20
2022-10-13T09:55:00,pkn,1.20
2022-10-13T09:59:00,pkn,2.40
2022-10-13T10:01:00,pkn,1.20
2022-10-13T10:04:00,pkn,1.20
2022-10-13T10:06:00,pkn,1.20
2022-10-13T10:07:00,pkn,1.20
2022-10-13T10:09:00,pkn,1.20
2022-10-13T10:11:00,pkn,1.20
2022-10-13T10:12:00,pkn,1.20
2022-10-13T10:15:00,pkn,2.40
2022-10-13T10:17:00,pkn,8.40
2022-10-13T10:19:00,pkn,9.60
2022-10-13T10:21:00,pkn,9.60
2022-10-13T10:23:00,pkn,9.60
2022-10-13T10:25:00,pkn,6.00
2022-10-13T10:27:00,pkn,1.20
2022-10-13T10:29:00,pkn,1.20
2022-10-13T10:31:00,pkn,1.20
2022-10-13T10:32:00,pkn,1.20
2022-10-13T10:34:00,pkn,1.20
2022-10-13T10:37:00,pkn,2.40
2022-10-13T10:38:00,pkn,1.20
2022-10-13T10:40:00,pkn,1.20
2022-10-13T10:41:00,pkn,1.20
2022-10-13T10:44:00,pkn,3.60
2022-10-13T10:46:00,pkn,9.60
2022-10-13T10:48:00,pkn,9.60
2022-10-13T10:49:00,pkn,4.80
2022-10-13T10:51:00,pkn,9.60
2022-10-13T10:52:00,pkn,3.60
2022-10-13T10:54:00,pkn,10.80
2022-10-13T10:56:00,pkn,9.60
2022-10-13T10:58:00,pkn,8.40
2022-10-13T10:59:00,pkn,4.80
2022-10-13T11:00:00,pkn,4.80
2022-10-13T11:02:00,pkn,3.60
2022-10-13T11:04:00,pkn,1.20
2022-10-13T11:06:00,pkn,1.20
2022-10-13T11:08:00,pkn,1.20
2022-10-13T11:09:00,pkn,1.20
2022-10-13T11:11:00,pkn,1.20
2022-10-13T11:12:00,pkn,3.60
2022-10-13T11:13:00,pkn,4.80
2022-10-13T11:15:00,pkn,8.40
2022-10-13T11:16:00,pkn,6.00
2022-10-13T11:18:00,pkn,8.40
2022-10-13T11:19:00,pkn,4.80
2022-10-13T11:21:00,pkn,8.40
2022-10-13T11:22:00,pkn,6.00
2022-10-13T11:24:00,pkn,2.40
2022-10-13T11:26:00,pkn,1.20
2022-10-13T11:28:00,pkn,1.20
2022-10-13T11:30:00,pkn,1.20
2022-10-13T11:32:00,pkn,2.40
2022-10-13T11:34:00,pkn,1.20
2022-10-13T11:36:00,pkn,1.20
2022-10-13T11:38:00,pkn,1.20
2022-10-13T11:39:00,pkn,1.20
2022-10-13T11:40:00,pkn,3.60
2022-10-13T11:42:00,pkn,10.80
2022-10-13T11:43:00,pkn,3.60
2022-10-13T11:45:00,pkn,9.60
2022-10-13T11:46:00,pkn,1.20
2022-10-13T11:47:00,pkn,8.40
2022-10-13T11:48:00,pkn,4.80
2022-10-13T11:50:00,pkn,6.00
2022-10-13T11:52:00,pkn,1.20
2022-10-13T11:54:00,pkn,1.20
2022-10-13T11:56:00,pkn,1.20
2022-10-13T11:59:00,pkn,1.20
2022-10-13T12:00:00,pkn,1.20
2022-10-13T12:02:00,pkn,1.20
2022-10-13T12:03:00,pkn,1.20
2022-10-13T12:06:00,pkn,1.20
2022-10-13T12:08:00,pkn,1.20
2022-10-13T12:10:00,pkn,2.40
2022-10-13T12:12:00,pkn,1.20
2022-10-13T12:15:00,pkn,9.60
2022-10-13T12:17:00,pkn,9.60
2022-10-13T12:19:00,pkn,8.40
2022-10-13T12:21:00,pkn,9.60
2022-10-13T12:23:00,pkn,2.40
2022-10-13T12:24:00,pkn,1.20
2022-10-13T12:27:00,pkn,1.20
2022-10-13T12:29:00,pkn,1.20
2022-10-13T12:30:00,pkn,1.20
2022-10-13T12:32:00,pkn,2.40
2022-10-13T12:33:00,pkn,1.20
2022-10-13T12:35:00,pkn,2.40
2022-10-13T12:37:00,pkn,1.20
2022-10-13T12:38:00,pkn,1.20
2022-10-13T12:40:00,pkn,2.40
2022-10-13T12:42:00,pkn,1.20
2022-10-13T12:44:00,pkn,1.20
2022-10-13T12:46:00,pkn,1.20
2022-10-13T12:49:00,pkn,4.80
2022-10-13T12:51:00,pkn,4.80
2022-10-13T12:53:00,pkn,4.80
2022-10-13T12:55:00,pkn,10.80
2022-10-13T12:57:00,pkn,13.20
2022-10-13T12:59:00,pkn,10.80
2022-10-13T13:00:00,pkn,7.20
2022-10-13T13:02:00,pkn,9.60
2022-10-13T13:04:00,pkn,8.40
2022-10-13T13:06:00,pkn,3.60
2022-10-13T13:07:00,pkn,2.40
2022-10-13T13:08:00,pkn,1.20
2022-10-13T13:10:00,pkn,3.60
2022-10-13T13:12:00,pkn,3.60
2022-10-13T13:14:00,pkn,2.40
2022-10-13T13:16:00,pkn,3.60
2022-10-13T13:17:00,pkn,2.40
2022-10-13T13:19:00,pkn,1.20
2022-10-13T13:21:00,pkn,1.20
2022-10-13T13:23:00,pkn,2.40
2022-10-13T13:26:00,pkn,2.40
2022-10-13T13:29:00,pkn,2.40
2022-10-13T13:31:00,pkn,1.20
2022-10-13T13:33:00,pkn,1.20
2022-10-13T13:35:00,pkn,6.00
2022-10-13T13:37:00,pkn,9.60
2022-10-13T13:39:00,pkn,8.40
2022-10-13T13:41:00,pkn,9.60
2022-10-13T13:42:00,pkn,4.80
2022-10-13T13:44:00,pkn,1.20
2022-10-13T13:46:00,pkn,1.20
2022-10-13T13:48:00,pkn,1.20
2022-10-13T13:49:00,pkn,1.20
2022-10-13T13:51:00,pkn,1.20
2022-10-13T13:53:00,pkn,1.20
2022-10-13T13:54:00,pkn,1.20
2022-10-13T13:56:00,pkn,1.20
2022-10-13T13:58:00,pkn,1.20
2022-10-13T14:00:00,pkn,1.20
2022-10-13T14:01:00,pkn,1.20
2022-10-13T14:03:00,pkn,1.20
2022-10-13T14:05:00,pkn,1.20
2022-10-13T14:06:00,pkn,1.20
2022-10-13T14:08:00,pkn,8.40
2022-10-13T14:09:00,pkn,3.60
2022-10-13T14:11:00,pkn,9.60
2022-10-13T14:12:00,pkn,4.80
2022-10-13T14:14:00,pkn,8.40
2022-10-13T14:16:00,pkn,1.20
2022-10-13T14:18:00,pkn,2.40
2022-10-13T14:20:00,pkn,1.20
2022-10-13T14:22:00,pkn,2.40
2022-10-13T14:24:00,pkn,1.20
2022-10-13T14:26:00,pkn,1.20
2022-10-13T14:28:00,pkn,1.20
2022-10-13T14:30:00,pkn,1.20
2022-10-13T14:31:00,pkn,1.20
2022-10-13T14:33:00,pkn,1.20
2022-10-13T14:34:00,pkn,1.20
2022-10-13T14:36:00,pkn,1.20
2022-10-13T14:38:00,pkn,1.20
2022-10-13T14:40:00,pkn,1.20
2022-10-13T14:41:00,pkn,1.20
2022-10-13T14:43:00,pkn,4.80
2022-10-13T14:45:00,pkn,9.60
2022-10-13T14:47:00,pkn,7.20
2022-10-13T14:48:00,pkn,2.40
2022-10-13T14:49:00,pkn,8.40
2022-10-13T14:50:00,pkn,1.20
2022-10-13T14:51:00,pkn,2.40
2022-10-13T14:52:00,pkn,1.20
2022-10-13T14:54:00,pkn,1.20
2022-10-13T14:56:00,pkn,2.40
2022-10-13T14:58:00,pkn,1.20
2022-10-13T15:00:00,pkn,2.40
2022-10-13T15:02:00,pkn,1.20
2022-10-13T15:03:00,pkn,1.20
2022-10-13T15:04:00,pkn,1.20
2022-10-13T15:06:00,pkn,2.40
2022-10-13T15:08:00,pkn,1.20
2022-10-13T15:09:00,pkn,1.20
2022-10-13T15:12:00,pkn,2.40
2022-10-13T15:14:00,pkn,1.20
2022-10-13T15:16:00,pkn,2.40
2022-10-13T15:18:00,pkn,1.20
2022-10-13T15:20:00,pkn,1.20
2022-10-13T15:22:00,pkn,2.40
2022-10-13T15:24:00,pkn,8.40
2022-10-13T15:26:00,pkn,8.40
2022-10-13T15:27:00,pkn,6.00
2022-10-13T15:29:00,pkn,8.40
2022-10-13T15:30:00,pkn,4.80
2022-10-13T15:31:00,pkn,4.80
2022-10-13T15:33:00,pkn,9.60
2022-10-13T15:34:00,pkn,4.80
2022-10-13T15:36:00,pkn,7.20
2022-10-13T15:38:00,pkn,1.20
2022-10-13T15:40:00,pkn,1.20
2022-10-13T15:42:00,pkn,1.20
2022-10-13T15:44:00,pkn,1.20
2022-10-13T15:46:00,pkn,1.20
2022-10-13T15:48:00,pkn,1.20
2022-10-13T15:49:00,pkn,1.20
2022-10-13T15:52:00,pkn,1.20
2022-10-13T15:54:00,pkn,1.20
2022-10-13T15:55:00,pkn,1.20
2022-10-13T15:57:00,pkn,1.20
2022-10-13T15:58:00,pkn,1.20
2022-10-13T16:00:00,pkn,1.20
2022-10-13T16:01:00,pkn,1.20
2022-10-13T16:03:00,pkn,7.20
2022-10-13T16:04:00,pkn,3.60
2022-10-13T16:06:00,pkn,10.80
2022-10-13T16:08:00,pkn,8.40
2022-10-13T16:09:00,pkn,4.80
2022-10-13T16:11:00,pkn,10.80
2022-10-13T16:13:00,pkn,2.40
2022-10-13T16:15:00,pkn,1.20
2022-10-13T16:17:00,pkn,1.20
2022-10-13T16:19:00,pkn,1.20
2022-10-13T16:21:00,pkn,1.20
2022-10-13T16:23:00,pkn,1.20
2022-10-13T16:24:00,pkn,1.20
2022-10-13T16:26:00,pkn,1.20
2022-10-13T16:28:00,pkn,1.20
2022-10-13T16:29:00,pkn,1.20
2022-10-13T16:31:00,pkn,1.20
2022-10-13T16:34:00,pkn,1.20
2022-10-13T16:35:00,pkn,1.20
2022-10-13T16:37:00,pkn,1.20
2022-10-13T16:39:00,pkn,1.20
2022-10-13T16:41:00,pkn,1.20
2022-10-13T16:43:00,pkn,1.20
2022-10-13T16:44:00,pkn,1.20
2022-10-13T16:46:00,pkn,1.20
2022-10-13T16:48:00,pkn,1.20
2022-10-13T16:49:00,pkn,1.20
2022-10-13T16:51:00,pkn,1.20
2022-10-13T16:53:00,pkn,3.60
2022-10-13T16:55:00,pkn,8.40
2022-10-13T16:56:00,pkn,2.40
2022-10-13T16:57:00,pkn,8.40
2022-10-13T16:59:00,pkn,10.80
2022-10-13T17:00:00,pkn,3.60
2022-10-13T17:02:00,pkn,6.00
2022-10-13T17:04:00,pkn,1.20
2022-10-13T17:06:00,pkn,2.40
2022-10-13T17:07:00,pkn,1.20
2022-10-13T17:09:00,pkn,1.20
2022-10-13T17:11:00,pkn,2.40
2022-10-13T17:14:00,pkn,2.40
2022-10-13T17:17:00,pkn,2.40
2022-10-13T17:18:00,pkn,1.20
2022-10-13T17:20:00,pkn,1.20
2022-10-13T17:22:00,pkn,3.60
2022-10-13T17:23:00,pkn,6.00
2022-10-13T17:24:00,pkn,4.80
2022-10-13T17:26:00,pkn,9.60
2022-10-13T17:28:00,pkn,9.60
2022-10-13T17:29:00,pkn,4.80
2022-10-13T17:31:00,pkn,10.80
2022-10-13T17:32:00,pkn,2.40
2022-10-13T17:34:00,pkn,2.40
2022-10-13T17:36:00,pkn,1.20
2022-10-13T17:38:00,pkn,1.20
2022-10-13T17:40:00,pkn,2.40
2022-10-13T17:42:00,pkn,1.20
2022-10-13T17:44:00,pkn,2.40
2022-10-13T17:46:00,pkn,1.20
2022-10-13T17:48:00,pkn,2.40
2022-10-13T17:50:00,pkn,1.20
2022-10-13T17:52:00,pkn,1.20
2022-10-13T17:53:00,pkn,1.20
2022-10-13T17:55:00,pkn,1.20
2022-10-13T17:56:00,pkn,1.20
2022-10-13T17:58:00,pkn,1.20
2022-10-13T17:59:00,pkn,4.80
2022-10-13T18:01:00,pkn,10.80
2022-10-13T18:03:00,pkn,9.60
2022-10-13T18:05:00,pkn,9.60
2022-10-13T18:06:00,pkn,3.60
2022-10-13T18:07:00,pkn,1.20
2022-10-13T18:08:00,pkn,1.20
2022-10-13T18:10:00,pkn,2.40
2022-10-13T18:12:00,pkn,1.20
2022-10-13T18:13:00,pkn,1.20
2022-10-13T18:14:00,pkn,1.20
2022-10-13T18:16:00,pkn,1.20
2022-10-13T18:18:00,pkn,1.20
2022-10-13T18:19:00,pkn,1.20
2022-10-13T18:21:00,pkn,1.20
2022-10-13T18:23:00,pkn,2.40
2022-10-13T18:25:00,pkn,4.80
2022-10-13T18:27:00,pkn,4.80
2022-10-13T18:29:00,pkn,4.80
2022-10-13T18:31:00,pkn,4.80
2022-10-13T18:33:00,pkn,4.80
2022-10-13T18:35:00,pkn,3.60
2022-10-13T18:36:00,pkn,1.20
2022-10-13T18:38:00,pkn,3.60
2022-10-13T18:39:00,pkn,1.20
2022-10-13T18:40:00,pkn,2.40
2022-10-13T18:42:00,pkn,2.40
2022-10-13T18:43:00,pkn,2.40
2022-10-13T18:45:00,pkn,3.60
2022-10-13T18:47:00,pkn,12.00
2022-10-13T18:49:00,pkn,12.00
2022-10-13T18:50:00,pkn,4.80
2022-10-13T18:52:00,pkn,10.80
2022-10-13T18:54:00,pkn,3.60
2022-10-13T18:55:00,pkn,1.20
2022-10-13T18:56:00,pkn,1.20
2022-10-13T18:58:00,pkn,1.20
2022-10-13T19:00:00,pkn,2.40
2022-10-13T19:01:00,pkn,1.20
2022-10-13T19:03:00,pkn,1.20
2022-10-13T19:05:00,pkn,2.40
2022-10-13T19:06:00,pkn,1.20
2022-10-13T19:07:00,pkn,2.40
2022-10-13T19:09:00,pkn,4.80
2022-10-13T19:12:00,pkn,2.40
2022-10-13T19:14:00,pkn,1.20
2022-10-13T19:16:00,pkn,2.40
2022-10-13T19:17:00,pkn,1.20
2022-10-13T19:19:00,pkn,1.20
2022-10-13T19:21:00,pkn,2.40
2022-10-13T19:25:00,pkn,2.40
2022-10-13T19:26:00,pkn,1.20
2022-10-13T19:27:00,pkn,1.20
2022-10-13T19:28:00,pkn,1.20
2022-10-13T19:30:00,pkn,1.20
2022-10-13T19:31:00,pkn,1.20
2022-10-13T19:33:00,pkn,2.40
2022-10-13T19:35:00,pkn,1.20
2022-10-13T19:36:00,pkn,1.20
2022-10-13T19:38:00,pkn,6.00
2022-10-13T19:40:00,pkn,9.60
2022-10-13T19:41:00,pkn,6.00
2022-10-13T19:43:00,pkn,9.60
2022-10-13T19:44:00,pkn,4.80
2022-10-13T19:46:00,pkn,2.40
2022-10-13T19:47:00,pkn,1.20
2022-10-13T19:48:00,pkn,2.40
2022-10-13T19:49:00,pkn,1.20
2022-10-13T19:51:00,pkn,1.20
2022-10-13T19:53:00,pkn,2.40
2022-10-13T19:55:00,pkn,1.20
2022-10-13T19:57:00,pkn,2.40
2022-10-13T19:59:00,pkn,1.20
2022-10-13T20:00:00,pkn,1.20
2022-10-13T20:02:00,pkn,1.20
2022-10-13T20:03:00,pkn,1.20
2022-10-13T20:04:00,pkn,1.20
2022-10-13T20:06:00,pkn,1.20
2022-10-13T20:08:00,pkn,2.40
2022-10-13T20:10:00,pkn,1.20
2022-10-13T20:11:00,pkn,1.20
2022-10-13T20:13:00,pkn,1.20
2022-10-13T20:14:00,pkn,1.20
2022-10-13T20:15:00,pkn,1.20
2022-10-13T20:16:00,pkn,1.20
2022-10-13T20:18:00,pkn,1.20
2022-10-13T20:19:00,pkn,1.20
2022-10-13T20:21:00,pkn,2.40
2022-10-13T20:24:00,pkn,2.40
2022-10-13T20:26:00,pkn,1.20
2022-10-13T20:28:00,pkn,2.40
2022-10-13T20:29:00,pkn,1.20
2022-10-13T20:31:00,pkn,2.40
2022-10-13T20:32:00,pkn,1.20
2022-10-13T20:34:00,pkn,1.20
2022-10-13T20:35:00,pkn,1.20
2022-10-13T20:36:00,pkn,1.20
2022-10-13T20:38:00,pkn,2.40
2022-10-13T20:41:00,pkn,2.40
2022-10-13T20:42:00,pkn,2.40
2022-10-13T20:43:00,pkn,1.20
2022-10-13T20:44:00,pkn,9.60
2022-10-13T20:46:00,pkn,10.80
2022-10-13T20:48:00,pkn,8.40
2022-10-13T20:50:00,pkn,7.20
2022-10-13T20:51:00,pkn,1.20
2022-10-13T20:53:00,pkn,2.40
2022-10-13T20:55:00,pkn,2.40
2022-10-13T20:56:00,pkn,1.20
2022-10-13T20:58:00,pkn,1.20
2022-10-13T21:00:00,pkn,2.40
2022-10-13T21:02:00,pkn,2.40
2022-10-13T21:04:00,pkn,1.20
2022-10-13T21:05:00,pkn,1.20
2022-10-13T21:07:00,pkn,2.40
2022-10-13T21:09:00,pkn,2.40
2022-10-13T21:11:00,pkn,1.20
2022-10-13T21:13:00,pkn,2.40
2022-10-13T21:14:00,pkn,1.20
2022-10-13T21:16:00,pkn,1.20
2022-10-13T21:18:00,pkn,2.40
2022-10-13T21:20:00,pkn,1.20
2022-10-13T21:21:00,pkn,1.20
2022-10-13T21:22:00,pkn,1.20
2022-10-13T21:23:00,pkn,2.40
2022-10-13T21:25:00,pkn,2.40
2022-10-13T21:28:00,pkn,2.40
2022-10-13T21:30:00,pkn,1.20
2022-10-13T21:32:00,pkn,2.40
2022-10-13T21:33:00,pkn,2.40
2022-10-13T21:34:00,pkn,1.20
2022-10-13T21:35:00,pkn,1.20
2022-10-13T21:36:00,pkn,1.20
2022-10-13T21:38:00,pkn,1.20
2022-10-13T21:39:00,pkn,1.20
2022-10-13T21:41:00,pkn,2.40
2022-10-13T21:43:00,pkn,1.20
2022-10-13T21:44:00,pkn,1.20
2022-10-13T21:45:00,pkn,1.20
2022-10-13T21:47:00,pkn,1.20
2022-10-13T21:49:00,pkn,2.40
2022-10-13T21:51:00,pkn,1.20
2022-10-13T21:52:00,pkn,1.20
2022-10-13T21:53:00,pkn,1.20
2022-10-13T21:55:00,pkn,4.80
2022-10-13T21:57:00,pkn,10.80
2022-10-13T21:59:00,pkn,9.60
2022-10-13T22:00:00,pkn,4.80
2022-10-13T22:02:00,pkn,13.20
2022-10-13T22:04:00,pkn,13.20
2022-10-13T22:06:00,pkn,6.00
2022-10-13T22:08:00,pkn,1.20
2022-10-13T22:10:00,pkn,3.60
2022-10-13T22:11:00,pkn,1.20
2022-10-13T22:12:00,pkn,2.40
2022-10-13T22:14:00,pkn,3.60
2022-10-13T22:15:00,pkn,1.20
2022-10-13T22:17:00,pkn,3.60
2022-10-13T22:20:00,pkn,9.60
2022-10-13T22:21:00,pkn,6.00
2022-10-13T22:23:00,pkn,9.60
2022-10-13T22:24:00,pkn,4.80
2022-10-13T22:26:00,pkn,10.80
2022-10-13T22:28:00,pkn,9.60
2022-10-13T22:30:00,pkn,10.80
2022-10-13T22:31:00,pkn,3.60
2022-10-13T22:33:00,pkn,10.80
2022-10-13T22:34:00,pkn,3.60
2022-10-13T22:36:00,pkn,1.20
2022-10-13T22:37:00,pkn,1.20
2022-10-13T22:39:00,pkn,2.40
2022-10-13T22:41:00,pkn,2.40
2022-10-13T22:43:00,pkn,3.60
2022-10-13T22:45:00,pkn,4.80
2022-10-13T22:47:00,pkn,3.60
2022-10-13T22:49:00,pkn,2.40
2022-10-13T22:51:00,pkn,3.60
2022-10-13T22:53:00,pkn,3.60
2022-10-13T22:54:00,pkn,1.20
2022-10-13T22:56:00,pkn,2.40
2022-10-13T22:58:00,pkn,1.20
2022-10-13T23:00:00,pkn,2.40
2022-10-13T23:01:00,pkn,1.20
2022-10-13T23:03:00,pkn,1.20
2022-10-13T23:05:00,pkn,2.40
2022-10-13T23:06:00,pkn,6.00
2022-10-13T23:08:00,pkn,9.60
2022-10-13T23:10:00,pkn,9.60
2022-10-13T23:11:00,pkn,6.00
2022-10-13T23:13:00,pkn,10.80
2022-10-13T23:14:00,pkn,1.20
2022-10-13T23:16:00,pkn,1.20
2022-10-13T23:18:00,pkn,2.40
2022-10-13T23:19:00,pkn,1.20
2022-10-13T23:21:00,pkn,1.20
2022-10-13T23:23:00,pkn,1.20
2022-10-13T23:25:00,pkn,2.40
2022-10-13T23:26:00,pkn,1.20
2022-10-13T23:28:00,pkn,1.20
2022-10-13T23:29:00,pkn,1.20
2022-10-13T23:31:00,pkn,3.60
2022-10-13T23:32:00,pkn,4.80
2022-10-13T23:34:00,pkn,9.60
2022-10-13T23:36:00,pkn,10.80
2022-10-13T23:37:00,pkn,4.80
2022-10-13T23:38:00,pkn,4.80
2022-10-13T23:40:00,pkn,10.80
2022-10-13T23:41:00,pkn,6.00
2022-10-13T23:43:00,pkn,8.40
2022-10-13T23:45:00,pkn,10.80
2022-10-13T23:46:00,pkn,3.60
2022-10-13T23:48:00,pkn,1.20
2022-10-13T23:50:00,pkn,1.20
2022-10-13T23:52:00,pkn,2.40
2022-10-13T23:54:00,pkn,1.20
2022-10-13T23:55:00,pkn,1.20
2022-10-13T23:57:00,pkn,1.20
2022-10-13T23:58:00,pkn,1.20
